Regional Weather Roundup
Issued by NWS

Home | Current Version | Previous Version | Graphics & Text | Print | Product List | Glossary On
Versions: 1 2 3 4 5 6 7 8 9 10 11 12 13 14 15 16 17 18 19 20 21 22 23 24 25 26 27 28 29 30 31 32 33 34 35 36 37 38 39 40 41 42 43 44 45 46 47 48 49 50
223
ASUS45 KABQ 221810
RWRNM
NEW MEXICO REGIONAL WEATHER ROUNDUP
NATIONAL WEATHER SERVICE ALBUQUERQUE NM
1200 PM MDT WED MAR 22 2017

NOTE: "FAIR" MEANS FEW OR NO CLOUDS BELOW 12,000 FEET AGL WITH NO
       SIGNIFICANT WEATHER OR OBSTRUCTIONS TO VISION.

      THIS PRODUCT IS RELEASED AS TWO VERSIONS.  ONE VERSION NEAR
      THE TOP OF THE HOUR CONTAINING PRELIMINARY DATA FROM ALBUQUERQUE
      AND OTHER STATIONS.  A FINAL VERSION WITH ADDITIONAL DATA IS
      ISSUED ABOUT 10 MINUTES AFTER THE HOUR.

NMZ501-503-504-510>518-221900-
NORTHWEST PLATEAU/NORTHCENTRAL MOUNTAINS

CITY           SKY/WX    TMP DP  RH WIND       PRES   REMARKS
FARMINGTON     FAIR      68  22  17 S16       30.06F
6HR MIN TEMP:  43; 6HR MAX TEMP:  68;

LOS ALAMOS     FAIR      64  28  25 S15G23    30.18F
SANTA FE       FAIR      67  35  30 S12       30.15F
6HR MIN TEMP:  40; 6HR MAX TEMP:  68;

TAOS             N/A     64  30  27 S3        30.17F
ANGEL FIRE     FAIR      60  26  26 SW14G23   30.22F

$$
NMZ402-403-502-505>509-221900-
WESTCENTRAL MOUNTAINS/SOUTHWEST MOUNTAINS

CITY           SKY/WX    TMP DP  RH WIND       PRES   REMARKS
GALLUP         FAIR      68  24  19 SW16G23   30.12F
6HR MIN TEMP:  32; 6HR MAX TEMP:  68;

GRANTS         FAIR      69  18  14 S17       30.14F
SILVER CITY    FAIR      73  26  17 S13G20    30.14F

$$
NMZ407-409-411-412-221900-
SOUTHERN DESERTS

CITY           SKY/WX    TMP DP  RH WIND       PRES   REMARKS
DEMING         FAIR      80  22  11 SW9       30.08F
6HR MIN TEMP:  45; 6HR MAX TEMP:  80;

LAS CRUCES     FAIR      80  20  10 SW6       30.10F
HOLLOMAN AFB   FAIR      82  15   8 S7        30.10F
ALAMOGORDO     FAIR      81  23  12 S5        30.08F
T OR C         FAIR      76  23  14 S14       30.08F
6HR MIN TEMP:  50; 6HR MAX TEMP:  76;


$$
NMZ519>523-221900-
CENTRAL VALLEYS/CENTRAL HIGHLANDS

CITY           SKY/WX    TMP DP  RH WIND       PRES   REMARKS
ALBUQUERQUE    PTSUNNY   70  23  17 S10       30.11F
6HR MIN TEMP:  50; 6HR MAX TEMP:  70;

DOUBLE EAGLE   MOSUNNY   66  30  26 SE7       30.14F
MORIARTY ARPT  FAIR      68  36  30 S10G16    30.17F
6HR MIN TEMP:  32; 6HR MAX TEMP:  68;

CLINES CORNERS FAIR      66  27  23 SW18      30.21F
6HR MIN TEMP:  36; 6HR MAX TEMP:  66;

BELEN          FAIR      71  22  16 S5        30.09F
6HR MIN TEMP:  40; 6HR MAX TEMP:  71;

SOCORRO        FAIR      72  23  16 S8        30.09F
6HR MIN TEMP:  44; 6HR MAX TEMP:  72;


$$
NMZ524>526-539-540-221900-
SOUTHCENTRAL MOUNTAINS

CITY           SKY/WX    TMP DP  RH WIND       PRES   REMARKS
RUIDOSO        FAIR      73  19  13 SE9       30.22F

$$
NMZ527>531-221900-
NORTHEAST HIGHLANDS/NORTHEAST PLAINS

CITY           SKY/WX    TMP DP  RH WIND       PRES   REMARKS
LAS VEGAS      FAIR      62  39  42 S17       30.17F
6HR MIN TEMP:  35; 6HR MAX TEMP:  62;

RATON          FAIR      56  39  53 S13       30.13F
6HR MIN TEMP:  38; 6HR MAX TEMP:  58;

CLAYTON        FAIR      59  44  57 S21G26    30.13F
6HR MIN TEMP:  36; 6HR MAX TEMP:  59;


$$
NMZ532>537-221900-
EASTCENTRAL PLAINS

CITY           SKY/WX    TMP DP  RH WIND       PRES   REMARKS
SANTA ROSA     FAIR      60  44  57 S5        30.15F
TUCUMCARI      CLOUDY    57  42  57 VRB6      30.14F
6HR MIN TEMP:  40; 6HR MAX TEMP:  57;

CANNON AFB     FAIR      58  53  82 SE9       30.16F
6HR MIN TEMP:  42; 6HR MAX TEMP:  58;

CLOVIS AIRPORT CLOUDY    55  43  62 E6        30.18F

$$
NMZ028-029-538-221900-
SOUTHEAST PLAINS

CITY           SKY/WX    TMP DP  RH WIND       PRES   REMARKS
ROSWELL        FAIR      67  47  48 CALM        N/A
6HR MIN TEMP:  50; 6HR MAX TEMP:  68;

ARTESIA        FAIR      68  50  52 VRB6      30.12F
CARLSBAD       FAIR      71  52  50 CALM      30.09F
6HR MIN TEMP:  50; 6HR MAX TEMP:  72;

HOBBS          SUNNY     68  50  52 NE8       30.13F


$$




USA.gov is the U.S. government's official web portal to all federal, state and local government web resources and services.